Regional Weather Roundup
Issued by NWS Charleston, SC

Current Version | Previous Version | Graphics & Text | Print | Product List | Glossary On
Versions: 1 2 3 4 5 6 7 8 9 10 11 12 13 14 15 16 17 18 19 20 21 22 23 24 25 26 27 28 29 30 31 32 33 34 35 36 37 38 39 40 41 42 43 44 45 46 47 48 49 50
000 ASUS42 KCHS 272027 RWRCHS REGIONAL WEATHER ROUNDUP NATIONAL WEATHER SERVICE CHARLESTON SC 400 PM EDT WED MAY 27 2015 NOTE: "FAIR" INDICATES FEW OR NO CLOUDS BELOW 12,000 FEET WITH NO SIGNIFICANT WEATHER AND/OR OBSTRUCTIONS TO VISIBILITY. NOT ALL STATIONS ARE QUALITY CONTROLLED BY THE NATIONAL WEATHER SERVICE. USE DATA WITH CAUTION...ESPECIALLY DEWPOINT OBSERVATIONS. SCZ027-030-031-034>040-042>050-272100- ...SOUTHEAST SOUTH CAROLINA... CITY SKY/WX TMP DP RH WIND PRES REMARKS N CHARLESTON MOSUNNY 83 65 54 S12 30.21F WATERFRONT PAR N/A 79 68 69 SE7 30.20F MOUNT PLEASANT LGT RAIN 82 66 57 S10 30.21F JOHNS ISLAND CLEAR 82 68 61 SE9 30.22F PINOPOLIS N/A 90 66 45 S5 30.11F HX 92 MONCKS CORNER FAIR 86 64 48 S10 30.19F SUMMERVILLE FAIR 88 68 51 SE7 30.19F HX 91 BEAUFORT MCAS MOSUNNY 86 66 51 SE6 30.21F BEAUFORT ARPT FAIR 82 68 61 SE7 30.21F HILTON HEAD IS MOSUNNY 81 68 65 SE6 30.23F WALTERBORO PTCLDY 86 63 45 SE10 30.20S ALLENDALE LGT RAIN 73 72 94 VRB6 30.20F ...SOUTHERN MIDLANDS AND PEE DEE... CITY SKY/WX TMP DP RH WIND PRES REMARKS GEORGETOWN NOT AVBL KINGSTREE NOT AVBL ORANGEBURG PTSUNNY 81 67 62 S9 30.21S BARNWELL CLOUDY 88 66 48 SE12 30.19F HX 90 AIKEN FAIR 82 61 47 SW5 30.23F MANNING FAIR 81 57 44 CALM 30.19F COLUMBIA PTSUNNY 86 67 52 MISG 30.18F SUMTER LGT RAIN 72 68 88 SW9 30.19F FLORENCE LGT RAIN 79 71 76 W5 30.20F MYRTLE BEACH MOSUNNY 82 66 57 S16 30.23F N MYRTLE BEACH SUNNY 80 68 66 S13 30.22F $$ GAZ063-065-086>088-099>101-113>116-118-119-134>141-150-272100- ...SOUTHEAST GEORGIA... CITY SKY/WX TMP DP RH WIND PRES REMARKS SAVANNAH ARPT PTSUNNY 85 63 47 SE14G20 30.20F HUNTER AAF MOSUNNY 84 68 58 SE10 30.18F FORT STEWART MOSUNNY 86 65 49 SE12 30.17F STATESBORO PTSUNNY 85 73 68 SE3 30.17F HX 92 SYLVANIA MOCLDY 81 76 85 N5 30.19F CLAXTON FAIR 86 68 54 SE8G16 30.17F ...CSRA...CENTRAL AND FAR SOUTHEAST GEORGIA... CITY SKY/WX TMP DP RH WIND PRES REMARKS THOMSON MOSUNNY 87 69 55 SW5 30.22F HX 92 AUGUSTA-BUSH MOSUNNY 84 66 54 VRB3 30.17F AUGUSTA-DANIEL MOSUNNY 86 65 49 SW5 30.19F SWAINSBORO CLOUDY 86 72 62 E6 30.18F HX 92 VIDALIA RAIN 82 72 69 NE7 30.17F EASTMAN FAIR 89 69 51 SE7 30.18F HX 92 HAZLEHURST FAIR 87 70 57 NE3 30.15F HX 91 ALMA MOSUNNY 87 65 47 E8 30.16F WAYCROSS MOSUNNY 87 66 50 SE8 30.15F JESUP FAIR 90 64 43 SE8 30.17F HX 91 BAXLEY PTSUNNY 90 66 45 SE6 30.15F HX 92 BRUNSWICK N/A 82 63 51 E10G16 30.21S SAINT SIMONS NOT AVBL $$ SCZ027-028-034-036>038-045-046-048>050-GAZ119-141-272100- ...LAKE AND SUPPLEMENTAL COASTAL OBSERVATIONS... STATION/POSITION TIME TEMP WIND PRES WAVE SWELL AIR SEA DIR/SP/G HT/PER HT/PER/DIR (UTC) (F) (DEG/KT/KT) (MB) (FT/S) (FT/S/D) UPR LAKE MARION NOT AVBL WINYAH BAY 1945 78 150/ 11 1023.0S LAKE MURRAY 2000 83 250/ 5/ 10 1021.3F ACE BASIN NERRS 1915 83 160/ 3 1024.0S FORT PULASKI 2000 80 79 120/ 7/ 11 1023.6F SAPELO ISLAND 2000 85 110/ 7 1023.0F $$ ANZ835-935-AMZ111-154-330-350-352-354-370-450-454-472-272100- ...C-MAN AND BUOY OBSERVATIONS... STATION/POSITION TIME TEMP WIND PRES WAVE SWELL AIR SEA DIR/SP/G HT/PER HT/PER/DIR (UTC) (F) (DEG/KT/KT) (MB) (FT/S) (FT/S/D) BUOY 41004 1950 78 78 100/ 6/ 8 1023.4F 3/ 7 2/ 7 BUOY 41008 1950 78 79 120/ 6/ 10 1023.2F 3/ 6 3/110/ 6 FOLLY BEACH CMAN 2000 79 150/ 7/ 9 1023.6F CAPERS NEARSHORE 1908 79 170/ 8/ 10 1024.0F FRIPP NEARSHORE 1900 80 170/ 8/ 10 1023.4 STATION/POSITION TIME TEMP WIND PRES WAVE SWELL AIR SEA DIR/SP/G HT/PER HT/PER/DIR (UTC) (F) (DEG/KT/KT) (MB) (FT/S) (FT/S/D) 5E ST. MARYS GA 1921 80 N/A 3/ 6 FRYING PAN BUOY 1950 77 76 140/ 12/ 14 1024.7F 3/ 7 3/140/ 7 BUOY 41025 1950 75 77 160/ 14/ 17 1025.2F 3/ 6 2/120/ 7 CAPE LOOKOUT NC 2000 74 150/ 13/ 15 1024.4F BUOY 41002 1950 74 75 100/ 10/ 12 1024.9F 4/ 7 3/110/ 7 BUOY 41010 1920 78 80 90/ 14/ 17 1022.3F ST AUGUSTINE FL 2000 78 81 80/ 9/ 10 1023.0F $$

USA.gov is the U.S. government's official web portal to all federal, state and local government web resources and services.